Lakeville, MN

3:59 AM CDT on August 25, 2016 (GMT -0500)
Airlake

Weather History for KLVN - March, 2013

Change the Weather History Date:

Friday, March 15, 2013

  Actual Average Record
Temperature  
Mean Temperature 29 °F -  
Max Temperature 32 °F 38 °F 69 °F (2003)
Min Temperature 24 °F 20 °F -8 °F (1979)
Degree Days  
Heating Degree Days 36    
Moisture  
Dew Point 28 °F    
Average Humidity 94    
Maximum Humidity 100    
Minimum Humidity 87    
Precipitation  
Precipitation 0.00 in - - ()
Sea Level Pressure  
Sea Level Pressure 29.87 in    
Wind  
Wind Speed 7 mph (NE)    
Max Wind Speed 14 mph    
Max Gust Speed -    
Visibility 4 miles    
Events Rain    
Averages and records for this station are not official NWS values.
T = Trace of Precipitation, MM = Missing Value Source: NWS Daily Summary

Daily Weather History Graph

Daily Weather History Graph

Search for Another Location

Airport or City:

Trip Planner

Search our weather history database for the weather conditions in past years. The results will help you decide how hot, cold, wet, or windy it might be!

Date:

Astronomy

Mar. 15, 2013 Rise Set
Actual Time 7:24 AM CDT 7:19 PM CDT
Civil Twilight 6:55 AM CDT 7:48 PM CDT
Nautical Twilight 6:21 AM CDT 8:22 PM CDT
Astronomical Twilight 5:47 AM CDT 8:57 PM CDT
Moon 9:04 AM CDT (3/15) 11:45 PM CDT (3/15)
Length of Visible Light 12h 52m
Length of Day
11h 54m
Waxing Crescent, 15% of the Moon is Illuminated
Mar 15
Waxing Crescent
Mar 19
First Quarter
Mar 27
Full
Apr 2
Last Quarter
Apr 10
New

Hourly Weather History & Observations

Time (CDT) Temp. Windchill Dew Point Humidity Pressure Visibility Wind Dir Wind Speed Gust Speed Precip Events Conditions
8:30 AM - - - N/A% 29.91 in - North - - N/A   Unknown
8:45 AM 30.2 °F 25.4 °F 28.4 °F 93% 29.91 in 1.8 mi NE 4.6 mph - N/A   Unknown
9:04 AM 30.2 °F - 28.4 °F 93% 29.91 in 1.5 mi Calm Calm - N/A   Overcast
9:25 AM 30.2 °F - 28.4 °F 93% 29.93 in 1.2 mi Calm Calm - N/A   Overcast
9:45 AM 30.2 °F 24.3 °F 28.4 °F 93% 29.91 in 1.2 mi NE 5.8 mph - N/A   Overcast
10:04 AM 30.2 °F 21.3 °F 28.4 °F 93% 29.89 in 1.8 mi NE 10.4 mph - N/A   Overcast
10:25 AM 30.2 °F 23.4 °F 28.4 °F 93% 29.91 in 2.0 mi NE 6.9 mph - N/A   Overcast
10:44 AM 30.2 °F 23.4 °F 30.2 °F 100% 29.91 in 2.0 mi ENE 6.9 mph - N/A   Overcast
11:05 AM 30.2 °F 21.9 °F 28.4 °F 93% 29.90 in 2.5 mi ENE 9.2 mph - N/A   Overcast
11:25 AM 30.2 °F 21.9 °F 28.4 °F 93% 29.89 in 2.5 mi ENE 9.2 mph - N/A   Overcast
11:44 AM 30.2 °F 21.3 °F 30.2 °F 100% 29.89 in 2.5 mi ENE 10.4 mph - N/A   Overcast
12:05 PM 30.2 °F 21.9 °F 28.4 °F 93% 29.89 in 2.0 mi ENE 9.2 mph - N/A Rain Light Freezing Rain
12:25 PM 30.2 °F 21.9 °F 30.2 °F 100% 29.89 in 2.0 mi ENE 9.2 mph - N/A   Overcast
12:44 PM 30.2 °F 22.6 °F 30.2 °F 100% 29.89 in 2.0 mi ENE 8.1 mph - N/A   Overcast
1:05 PM 32.0 °F 25.6 °F 30.2 °F 93% 29.89 in 2.0 mi ENE 6.9 mph - N/A   Overcast
1:25 PM 32.0 °F 24.8 °F 30.2 °F 93% 29.89 in 3.0 mi ENE 8.1 mph - N/A   Overcast
1:44 PM 32.0 °F 24.8 °F 30.2 °F 93% 29.89 in 3.0 mi ENE 8.1 mph - N/A   Overcast
2:05 PM 32.0 °F 25.6 °F 30.2 °F 93% 29.89 in 3.0 mi ENE 6.9 mph - N/A   Overcast
2:25 PM 32.0 °F 26.4 °F 30.2 °F 93% 29.89 in 4.0 mi NE 5.8 mph - N/A   Overcast
2:44 PM 32.0 °F 27.5 °F 30.2 °F 93% 29.88 in 3.0 mi NE 4.6 mph - N/A   Overcast
3:05 PM 32.0 °F 25.6 °F 30.2 °F 93% 29.86 in 4.0 mi ENE 6.9 mph - N/A   Overcast
3:25 PM 32.0 °F 26.4 °F 30.2 °F 93% 29.86 in 3.0 mi NE 5.8 mph - N/A   Overcast
3:44 PM 32.0 °F 24.8 °F 30.2 °F 93% 29.85 in 4.0 mi ENE 8.1 mph - N/A   Overcast
4:04 PM 32.0 °F 24.8 °F 30.2 °F 93% 29.85 in 5.0 mi ENE 8.1 mph - N/A   Overcast
4:25 PM 32.0 °F 23.6 °F 30.2 °F 93% 29.84 in 5.0 mi East 10.4 mph - N/A   Overcast
4:44 PM 32.0 °F 24.8 °F 30.2 °F 93% 29.84 in 5.0 mi ENE 8.1 mph - N/A   Overcast
5:05 PM 32.0 °F 24.8 °F 28.4 °F 87% 29.84 in 7.0 mi ENE 8.1 mph - N/A   Overcast
5:25 PM 32.0 °F 24.8 °F 28.4 °F 87% 29.82 in 7.0 mi ENE 8.1 mph - N/A   Overcast
5:44 PM 32.0 °F 24.8 °F 28.4 °F 87% 29.82 in 10.0 mi ENE 8.1 mph - N/A   Overcast
6:05 PM 32.0 °F 25.6 °F 28.4 °F 87% 29.82 in 10.0 mi NE 6.9 mph - N/A   Overcast
6:25 PM 30.2 °F 23.4 °F 28.4 °F 93% 29.82 in 10.0 mi NE 6.9 mph - N/A   Overcast
6:44 PM 30.2 °F 22.6 °F 28.4 °F 93% 29.81 in 10.0 mi ENE 8.1 mph - N/A   Overcast
7:05 PM 30.2 °F 21.9 °F 28.4 °F 93% 29.80 in 10.0 mi ENE 9.2 mph - N/A   Overcast
7:25 PM 30.2 °F 21.9 °F 28.4 °F 93% 29.80 in 10.0 mi ENE 9.2 mph - N/A   Overcast
7:44 PM 28.4 °F 19.1 °F 26.6 °F 93% 29.82 in 10.0 mi NE 10.4 mph - N/A   Overcast
8:05 PM 28.4 °F 17.5 °F 26.6 °F 93% 29.84 in 10.0 mi NNE 13.8 mph - N/A   Overcast
8:25 PM 28.4 °F 19.1 °F 26.6 °F 93% 29.84 in 5.0 mi NNE 10.4 mph - N/A   Overcast
8:44 PM 28.4 °F 18.5 °F 26.6 °F 93% 29.84 in 4.0 mi NNE 11.5 mph - N/A   Overcast
9:05 PM 28.4 °F 17.5 °F 26.6 °F 93% 29.84 in 5.0 mi NE 13.8 mph - N/A   Overcast
9:25 PM 26.6 °F 16.2 °F 26.6 °F 100% 29.87 in 4.0 mi NNE 11.5 mph - N/A   Overcast
9:44 PM 26.6 °F 18.2 °F 26.6 °F 100% 29.88 in 3.0 mi NNE 8.1 mph - N/A   Overcast
10:05 PM 26.6 °F 19.1 °F 26.6 °F 100% 29.88 in 3.0 mi NNE 6.9 mph - N/A   Overcast
10:25 PM 26.6 °F 19.1 °F 26.6 °F 100% 29.88 in 5.0 mi NE 6.9 mph - N/A   Overcast
10:44 PM 26.6 °F 18.2 °F 26.6 °F 100% 29.87 in 4.0 mi NE 8.1 mph - N/A   Overcast
11:04 PM 26.6 °F 16.2 °F 26.6 °F 100% 29.87 in 4.0 mi NNE 11.5 mph - N/A   Overcast
11:25 PM 26.6 °F 18.2 °F 24.8 °F 93% 29.87 in 4.0 mi NNE 8.1 mph - N/A   Overcast
11:44 PM 24.8 °F 16.9 °F 24.8 °F 100% 29.87 in 4.0 mi North 6.9 mph - N/A   Overcast